| time (UTC) | temp F | wind direction | speed MPH | gust MPH | rain 1hr in | rain 24hr in | rain mn in | humidity % | barometer mb |
| 20260503205004 | 83 | 261 | 0.0 | 5.0 | 0.00 | 0.00 | 0.00 | 32 | 1009.9 |
| 20260503204004 | 82 | 227 | 1.0 | 2.0 | 0.00 | 0.00 | 0.00 | 33 | 1010.1 |
| 20260503203004 | 81 | 197 | 1.0 | 5.0 | 0.00 | 0.00 | 0.00 | 32 | 1010.2 |
| 20260503202005 | 81 | 48 | 1.0 | 3.0 | 0.00 | 0.00 | 0.00 | 32 | 1010.3 |
| 20260503200005 | 81 | 244 | 1.0 | 3.0 | 0.00 | 0.00 | 0.00 | 34 | 1010.6 |
| 20260503194005 | 81 | 120 | 1.0 | 3.0 | 0.00 | 0.00 | 0.00 | 34 | 1010.9 |
| 20260503193004 | 81 | 165 | 1.0 | 5.0 | 0.00 | 0.00 | 0.00 | 35 | 1010.9 |
| 20260503192005 | 80 | 254 | 1.0 | 5.0 | 0.00 | 0.00 | 0.00 | 34 | 1011.2 |
| 20260503190005 | 79 | 215 | 2.0 | 5.0 | 0.00 | 0.00 | 0.00 | 37 | 1011.3 |
| 20260503185005 | 78 | 71 | 3.0 | 5.0 | 0.00 | 0.00 | 0.00 | 40 | 1011.4 |
| 20260503182005 | 75 | 227 | 0.0 | 3.0 | 0.00 | 0.00 | 0.00 | 44 | 1011.7 |
| 20260503181005 | 75 | 112 | 1.0 | 6.0 | 0.00 | 0.00 | 0.00 | 46 | 1011.8 |
| 20260503180005 | 74 | 57 | 1.0 | 6.0 | 0.00 | 0.00 | 0.00 | 48 | 1011.9 |
| 20260503175004 | 73 | 119 | 2.0 | 5.0 | 0.00 | 0.00 | 0.00 | 52 | 1012.0 |
| 20260503174004 | 71 | 49 | 2.0 | 5.0 | 0.00 | 0.00 | 0.00 | 54 | 1012.0 |
| 20260503172005 | 70 | 55 | 1.0 | 6.0 | 0.00 | 0.00 | 0.00 | 55 | 1012.2 |
| 20260503171004 | 71 | 113 | 2.0 | 6.0 | 0.00 | 0.00 | 0.00 | 54 | 1012.3 |
| 20260503151004 | 64 | 32 | 0.0 | 0.0 | 0.00 | 0.00 | 0.00 | 72 | 1012.7 |
| 20260503072005 | 58 | 154 | 0.0 | 0.0 | 0.00 | 0.00 | 0.00 | 72 | 1012.8 |
| 20260503071006 | 58 | 154 | 0.0 | 0.0 | 0.00 | 0.00 | 0.00 | 72 | 1012.8 |
| 20260503055005 | 60 | 154 | 0.0 | 0.0 | 0.00 | 0.00 | 0.00 | 64 | 1012.6 |
| 20260503045005 | 64 | 154 | 0.0 | 0.0 | 0.00 | 0.00 | 0.00 | 58 | 1012.5 |
| 20260503044005 | 65 | 154 | 0.0 | 0.0 | 0.00 | 0.00 | 0.00 | 57 | 1012.4 |
| 20260503043004 | 66 | 154 | 0.0 | 0.0 | 0.00 | 0.00 | 0.00 | 55 | 1012.4 |
| 20260503042005 | 66 | 154 | 0.0 | 0.0 | 0.00 | 0.00 | 0.00 | 54 | 1012.3 |
| 20260503041004 | 67 | 154 | 0.0 | 1.0 | 0.00 | 0.00 | 0.00 | 53 | 1012.2 |
| 20260503040005 | 67 | 79 | 0.0 | 0.0 | 0.00 | 0.00 | 0.00 | 52 | 1012.1 |
| 20260503034005 | 69 | 157 | 0.0 | 0.0 | 0.00 | 0.00 | 0.00 | 47 | 1011.7 |
| 20260503033004 | 70 | 157 | 0.0 | 3.0 | 0.00 | 0.00 | 0.00 | 45 | 1011.6 |
| 20260503030005 | 72 | 144 | 1.0 | 2.0 | 0.00 | 0.00 | 0.00 | 45 | 1011.4 |
| 20260503025005 | 72 | 130 | 0.0 | 2.0 | 0.00 | 0.00 | 0.00 | 46 | 1011.2 |
| 20260503023004 | 73 | 31 | 2.0 | 6.0 | 0.00 | 0.00 | 0.00 | 46 | 1011.1 |
| 20260503022004 | 74 | 147 | 0.0 | 5.0 | 0.00 | 0.00 | 0.00 | 45 | 1011.1 |
| 20260503021006 | 75 | 44 | 0.0 | 5.0 | 0.00 | 0.00 | 0.00 | 44 | 1011.1 |
| 20260503020005 | 75 | 301 | 1.0 | 2.0 | 0.00 | 0.00 | 0.00 | 44 | 1011.0 |
| 20260503014006 | 76 | 285 | 0.0 | 1.0 | 0.00 | 0.00 | 0.00 | 44 | 1011.0 |
| 20260503013004 | 76 | 134 | 0.0 | 2.0 | 0.00 | 0.00 | 0.00 | 43 | 1011.0 |
| 20260503012005 | 77 | 173 | 2.0 | 5.0 | 0.00 | 0.00 | 0.00 | 43 | 1011.0 |
| 20260503011005 | 77 | 171 | 2.0 | 2.0 | 0.00 | 0.00 | 0.00 | 43 | 1011.0 |
| 20260503010004 | 77 | 221 | 1.0 | 3.0 | 0.00 | 0.00 | 0.00 | 43 | 1011.0 |
| 20260503005004 | 76 | 230 | 1.0 | 5.0 | 0.00 | 0.00 | 0.00 | 44 | 1011.1 |
| 20260503003004 | 77 | 322 | 1.0 | 3.0 | 0.00 | 0.00 | 0.00 | 43 | 1011.2 |
| 20260503002005 | 77 | 60 | 2.0 | 3.0 | 0.00 | 0.00 | 0.00 | 44 | 1011.3 |
| 20260503001006 | 77 | 234 | 1.0 | 3.0 | 0.00 | 0.00 | 0.00 | 42 | 1011.4 |
| 20260503000004 | 77 | 277 | 1.0 | 7.0 | 0.00 | 0.00 | 0.00 | 43 | 1011.4 |
| 20260502235005 | 77 | 47 | 3.0 | 6.0 | 0.00 | 0.00 | 0.00 | 42 | 1011.5 |
| 20260502234004 | 77 | 282 | 0.0 | 6.0 | 0.00 | 0.00 | 0.00 | 40 | 1011.6 |
| 20260502233005 | 77 | 184 | 1.0 | 6.0 | 0.00 | 0.00 | 0.00 | 41 | 1011.7 |
| 20260502231005 | 76 | 74 | 3.0 | 7.0 | 0.00 | 0.00 | 0.00 | 42 | 1012.1 |
| 20260502225005 | 76 | 223 | 1.0 | 7.0 | 0.00 | 0.00 | 0.00 | 44 | 1012.4 |
| 20260502224004 | 76 | 45 | 3.0 | 6.0 | 0.00 | 0.00 | 0.00 | 45 | 1012.6 |
| 20260502223005 | 76 | 59 | 3.0 | 6.0 | 0.00 | 0.00 | 0.00 | 47 | 1012.6 |
| 20260502222005 | 76 | 57 | 2.0 | 6.0 | 0.00 | 0.00 | 0.00 | 46 | 1012.8 |
| 20260502221005 | 76 | 252 | 1.0 | 3.0 | 0.00 | 0.00 | 0.00 | 48 | 1012.9 |
| 20260502214004 | 75 | 36 | 2.0 | 6.0 | 0.00 | 0.00 | 0.00 | 50 | 1013.1 |
| 20260502213004 | 75 | 349 | 2.0 | 5.0 | 0.00 | 0.00 | 0.00 | 50 | 1013.2 |
| 20260502210004 | 75 | 213 | 1.0 | 6.0 | 0.00 | 0.00 | 0.00 | 50 | 1013.5 |